Hourly Weather Kitaevskoe

Today, 27 July, Tuesday

Time Temperature Precipitation Wind Pressure Humidity
00:00 +26°C° 0 mm 7 mps 744 mmHg 51%
01:00 +26°C° 0 mm 6 mps 744 mmHg 50%
02:00 +26°C° 0 mm 5 mps 744 mmHg 49%
03:00 +25°C° 0 mm 4 mps 744 mmHg 49%
04:00 +25°C° 0.1 mm 4 mps 745 mmHg 54%
05:00 +23°C° 0.1 mm 4 mps 745 mmHg 59%
06:00 +22°C° 0.1 mm 4 mps 745 mmHg 65%
07:00 +22°C° 1.5 mm 4 mps 745 mmHg 71%
08:00 +21°C° 1.5 mm 4 mps 745 mmHg 78%
09:00 +20°C° 1.5 mm 4 mps 746 mmHg 84%
10:00 +20°C° 2.1 mm 4 mps 746 mmHg 83%
11:00 +20°C° 2.1 mm 4 mps 746 mmHg 81%
12:00 +20°C° 2.1 mm 5 mps 746 mmHg 79%
13:00 +20°C° 0 mm 5 mps 746 mmHg 75%
14:00 +21°C° 0 mm 5 mps 746 mmHg 71%
15:00 +21°C° 0 mm 6 mps 746 mmHg 67%
16:00 +21°C° 0 mm 6 mps 746 mmHg 65%
17:00 +21°C° 0 mm 6 mps 746 mmHg 63%
18:00 +21°C° 0 mm 7 mps 746 mmHg 60%
19:00 +21°C° 0 mm 6 mps 746 mmHg 59%
20:00 +21°C° 0 mm 5 mps 746 mmHg 58%
21:00 +21°C° 0 mm 4 mps 746 mmHg 56%
22:00 +20°C° 0.1 mm 3 mps 747 mmHg 60%
23:00 +20°C° 0.1 mm 3 mps 747 mmHg 64%

Tomorrow, 28 July, Wednesday

Time Temperature Precipitation Wind Pressure Humidity
00:00 +19°C° 0.1 mm 2 mps 747 mmHg 67%
01:00 +19°C° 0.1 mm 2 mps 746 mmHg 67%
02:00 +20°C° 0.1 mm 1 mps 746 mmHg 66%
03:00 +20°C° 0.1 mm 1 mps 746 mmHg 66%
04:00 +20°C° 0 mm 1 mps 746 mmHg 67%
05:00 +20°C° 0 mm 1 mps 746 mmHg 69%
06:00 +18°C° 0 mm 2 mps 746 mmHg 70%
07:00 +19°C° 0.1 mm 1 mps 747 mmHg 72%
08:00 +19°C° 0.1 mm 1 mps 747 mmHg 74%
09:00 +19°C° 0.1 mm 1 mps 747 mmHg 76%
10:00 +20°C° 0 mm 1 mps 747 mmHg 73%
11:00 +21°C° 0 mm 1 mps 747 mmHg 70%
12:00 +21°C° 0 mm 2 mps 747 mmHg 66%
13:00 +23°C° 0 mm 2 mps 746 mmHg 60%
14:00 +25°C° 0 mm 3 mps 746 mmHg 54%
15:00 +26°C° 0 mm 3 mps 746 mmHg 48%
16:00 +25°C° 0 mm 3 mps 746 mmHg 50%
17:00 +25°C° 0 mm 4 mps 746 mmHg 52%
18:00 +23°C° 0 mm 4 mps 746 mmHg 53%
19:00 +22°C° 0 mm 4 mps 746 mmHg 58%
20:00 +20°C° 0 mm 3 mps 745 mmHg 63%
21:00 +19°C° 0 mm 3 mps 745 mmHg 67%
22:00 +19°C° 0 mm 2 mps 745 mmHg 69%
23:00 +18°C° 0 mm 2 mps 745 mmHg 70%

Day after tomorrow, 29 July, Thursday

Time Temperature Precipitation Wind Pressure Humidity
00:00 +19°C° 0 mm 1 mps 744 mmHg 71%
01:00 +19°C° 0 mm 1 mps 744 mmHg 72%
02:00 +19°C° 0 mm 1 mps 744 mmHg 73%
03:00 +17°C° 0 mm 0 mps 744 mmHg 74%
04:00 +19°C° 0 mm 1 mps 744 mmHg 74%
05:00 +19°C° 0 mm 1 mps 744 mmHg 73%
06:00 +20°C° 0 mm 1 mps 745 mmHg 73%
07:00 +21°C° 0 mm 2 mps 745 mmHg 65%
08:00 +24°C° 0 mm 2 mps 745 mmHg 57%
09:00 +26°C° 0 mm 3 mps 745 mmHg 50%
10:00 +27°C° 0 mm 3 mps 744 mmHg 44%
11:00 +29°C° 0 mm 4 mps 744 mmHg 39%
12:00 +30°C° 0 mm 5 mps 744 mmHg 34%
13:00 +32°C° 0 mm 5 mps 743 mmHg 32%
14:00 +32°C° 0 mm 4 mps 743 mmHg 30%
15:00 +33°C° 0 mm 4 mps 743 mmHg 28%
16:00 +32°C° 0 mm 4 mps 743 mmHg 31%
17:00 +31°C° 0 mm 3 mps 743 mmHg 34%
18:00 +30°C° 0 mm 3 mps 742 mmHg 37%
19:00 +28°C° 0 mm 2 mps 742 mmHg 40%
20:00 +26°C° 0 mm 1 mps 742 mmHg 43%
21:00 +25°C° 0 mm 1 mps 742 mmHg 46%
22:00 +24°C° 0 mm 1 mps 742 mmHg 47%
23:00 +23°C° 0 mm 1 mps 742 mmHg 48%

30 July, Friday

Time Temperature Precipitation Wind Pressure Humidity
00:00 +23°C° 0 mm 1 mps 742 mmHg 49%
01:00 +22°C° 0 mm 1 mps 742 mmHg 51%
02:00 +20°C° 0 mm 0 mps 742 mmHg 53%
03:00 +19°C° 0 mm 0 mps 742 mmHg 55%
04:00 +21°C° 0 mm 1 mps 742 mmHg 57%
05:00 +22°C° 0 mm 1 mps 742 mmHg 59%
06:00 +22°C° 0 mm 1 mps 742 mmHg 62%
07:00 +24°C° 0 mm 1 mps 742 mmHg 55%
08:00 +26°C° 0 mm 2 mps 742 mmHg 49%
09:00 +28°C° 0 mm 2 mps 742 mmHg 43%
10:00 +29°C° 0 mm 3 mps 742 mmHg 40%
11:00 +30°C° 0 mm 3 mps 742 mmHg 38%
12:00 +33°C° 0 mm 3 mps 742 mmHg 35%
13:00 +33°C° 0 mm 3 mps 741 mmHg 34%
14:00 +34°C° 0 mm 2 mps 741 mmHg 33%
15:00 +35°C° 0 mm 2 mps 740 mmHg 32%
16:00 +34°C° 0 mm 2 mps 740 mmHg 34%
17:00 +34°C° 0 mm 2 mps 740 mmHg 36%
18:00 +34°C° 0 mm 2 mps 740 mmHg 38%
19:00 +31°C° 0 mm 1 mps 740 mmHg 42%
20:00 +29°C° 0 mm 1 mps 740 mmHg 45%
21:00 +27°C° 0 mm 1 mps 740 mmHg 49%
22:00 +27°C° 0 mm 1 mps 740 mmHg 51%
23:00 +26°C° 0 mm 1 mps 740 mmHg 52%

31 July, Saturday

Time Temperature Precipitation Wind Pressure Humidity
00:00 +25°C° 0 mm 1 mps 740 mmHg 53%
01:00 +25°C° 0 mm 1 mps 740 mmHg 55%
02:00 +24°C° 0 mm 1 mps 740 mmHg 56%
03:00 +24°C° 0 mm 1 mps 740 mmHg 58%
04:00 +24°C° 0 mm 1 mps 740 mmHg 58%
05:00 +24°C° 0 mm 1 mps 740 mmHg 59%
06:00 +24°C° 0 mm 1 mps 740 mmHg 59%
07:00 +26°C° 0 mm 1 mps 740 mmHg 52%
08:00 +28°C° 0 mm 1 mps 740 mmHg 46%
09:00 +30°C° 0 mm 2 mps 741 mmHg 39%
10:00 +31°C° 0 mm 2 mps 740 mmHg 36%
11:00 +34°C° 0 mm 2 mps 740 mmHg 33%
12:00 +35°C° 0 mm 2 mps 740 mmHg 29%
13:00 +36°C° 0 mm 2 mps 740 mmHg 28%
14:00 +36°C° 0 mm 2 mps 740 mmHg 27%
15:00 +36°C° 0 mm 1 mps 739 mmHg 26%
16:00 +35°C° 0 mm 1 mps 739 mmHg 27%
17:00 +35°C° 0 mm 1 mps 739 mmHg 29%
18:00 +33°C° 0 mm 0 mps 739 mmHg 31%
19:00 +33°C° 0 mm 1 mps 739 mmHg 33%
20:00 +31°C° 0 mm 1 mps 739 mmHg 35%
21:00 +29°C° 0 mm 2 mps 740 mmHg 37%
22:00 +28°C° 0 mm 2 mps 740 mmHg 39%
23:00 +28°C° 0 mm 1 mps 740 mmHg 40%

1 August, Sunday

Time Temperature Precipitation Wind Pressure Humidity
00:00 +27°C° 0 mm 1 mps 740 mmHg 42%
01:00 +26°C° 0 mm 1 mps 740 mmHg 43%
02:00 +26°C° 0 mm 1 mps 740 mmHg 44%
03:00 +25°C° 0 mm 1 mps 740 mmHg 45%
04:00 +26°C° 0 mm 1 mps 740 mmHg 46%
05:00 +26°C° 0 mm 1 mps 740 mmHg 48%
06:00 +26°C° 0 mm 1 mps 740 mmHg 50%
07:00 +28°C° 0 mm 1 mps 740 mmHg 45%
08:00 +30°C° 0 mm 2 mps 740 mmHg 40%
09:00 +32°C° 0 mm 2 mps 741 mmHg 36%
10:00 +34°C° 0 mm 2 mps 741 mmHg 32%
11:00 +36°C° 0 mm 2 mps 740 mmHg 29%
12:00 +37°C° 0 mm 2 mps 740 mmHg 25%
13:00 +38°C° 0 mm 2 mps 740 mmHg 24%
14:00 +38°C° 0 mm 2 mps 740 mmHg 23%
15:00 +38°C° 0 mm 2 mps 740 mmHg 21%
16:00 +37°C° 0 mm 1 mps 740 mmHg 24%
17:00 +37°C° 0 mm 1 mps 740 mmHg 26%
18:00 +36°C° 0 mm 1 mps 740 mmHg 28%
19:00 +34°C° 0 mm 1 mps 740 mmHg 29%
20:00 +32°C° 0 mm 1 mps 740 mmHg 30%
21:00 +30°C° 0 mm 2 mps 740 mmHg 31%
22:00 +30°C° 0 mm 1 mps 740 mmHg 33%
23:00 +29°C° 0 mm 1 mps 740 mmHg 35%
Show more